Theta_e
321 321 320 317 315 320 313 314 310 312 319 321 325 328 333 336 336 338 341 346 341 341 344 347 350 345 344 342 342 344 341 342
318 316 316 315 318 309 313 305 302 308 311 311 318 323 333 335 335 337 340 343 345 347 350 349 345 342 342 342 339 338 337 334
314 312 310 312 311 312 311 309 303 302 308 321 321 326 334 335 334 332 334 335 338 341 341 342 341 339 338 339 338 337 336 333
309 315 316 313 311 311 305 305 309 307 307 329 332 334 336 331 330 330 331 333 334 336 337 334 332 334 335 336 336 339 337 337
306 310 314 310 312 311 310 310 306 303 306 330 333 332 334 330 329 328 328 328 329 329 330 330 332 332 332 335 337 336 335 333
302 306 310 308 310 312 310 306 306 307 308 323 326 329 328 330 329 327 327 327 327 327 329 331 333 337 336 335 334 335 336 334
310 310 310 308 308 308 308 309 306 308 308 319 327 330 330 331 330 331 331 333 334 334 334 336 333 335 335 335 333 333 333 332
308 309 308 306 308 309 310 310 310 311 309 328 332 334 330 330 329 330 331 332 334 335 335 334 335 336 336 336 335 335 334 332
305 310 309 305 309 310 310 313 313 309 321 329 328 330 329 330 330 330 332 334 335 336 335 335 335 337 335 336 336 335 334 334
306 308 299 310 317 316 313 314 317 318 324 327 331 334 334 335 333 333 334 334 335 335 334 335 335 335 334 334 334 332 331 331
304 304 307 309 313 312 311 312 322 322 327 330 331 331 330 334 334 335 335 336 335 335 335 333 331 331 330 329 329 328 328 330
307 302 298 310 315 317 313 303 324 327 327 328 327 319 324 330 334 335 336 337 335 335 331 329 330 330 329 328 327 326 327 329
305 302 306 316 317 318 303 310 322 324 325 326 323 330 334 334 335 337 337 337 337 329 326 329 331 331 328 328 327 328 329 330
307 304 300 318 317 310 321 323 324 325 328 329 330 329 332 333 335 335 336 335 329 326 327 331 332 331 331 329 331 330 330 330
311 313 319 322 323 325 325 323 326 328 329 332 328 327 330 333 335 336 335 331 327 326 329 331 332 332 330 331 332 332 331 330
312 316 318 320 324 325 325 326 327 327 326 327 327 327 327 331 333 334 332 328 328 327 328 329 331 331 331 332 333 331 330 330
315 318 319 320 322 325 326 327 324 324 323 321 322 327 325 327 330 332 332 330 329 329 330 330 331 331 331 332 332 329 328 326
313 320 318 322 324 326 325 324 323 322 322 323 322 325 328 328 331 331 331 332 331 331 332 332 332 331 333 333 332 330 324 321
320 321 320 324 325 326 324 324 324 322 323 322 322 323 325 327 331 328 333 334 334 334 334 335 332 332 333 334 333 329 325 323
Wind_Speed
10 8 10 13 17 16 17 19 18 15 7 13 18 16 12 12 7 7 7 14 13 4 4 11 19 16 18 21 17 16 16 13
12 4 11 13 17 13 11 15 16 18 12 8 6 13 16 12 10 7 8 11 13 13 17 19 17 13 16 16 16 14 12 7
16 14 14 10 12 13 16 12 12 12 2 9 6 10 16 13 12 10 11 8 8 11 14 16 15 13 15 12 8 2 1 4
18 13 11 9 16 16 13 13 14 12 12 10 13 12 15 14 11 9 9 9 9 10 12 13 12 10 8 7 2 2 3 5
19 16 19 10 12 15 19 17 20 16 10 12 13 13 15 12 11 9 8 9 9 9 9 9 10 7 6 6 2 4 8 9
15 18 16 13 13 17 16 12 16 15 15 14 9 12 9 11 11 10 9 9 9 8 8 8 6 6 5 6 5 3 7 8
19 19 20 19 22 18 22 22 17 19 19 10 12 13 11 11 13 14 14 14 14 13 11 9 7 7 7 7 6 5 5 7
19 18 19 21 23 21 20 16 19 19 17 15 14 14 13 11 9 10 11 11 10 11 12 11 10 10 10 10 10 10 9 8
17 15 18 13 15 20 12 12 14 10 8 7 6 10 12 12 11 11 11 12 11 10 12 11 10 8 8 10 10 8 8 7
14 15 17 6 11 11 7 6 5 5 7 5 9 11 12 15 14 14 13 12 11 8 8 9 8 8 8 8 7 7 7 8
13 13 12 10 7 4 5 3 2 7 6 10 9 10 10 10 9 10 13 11 9 8 10 9 10 8 7 7 6 5 6 5
10 10 13 6 10 3 3 11 8 10 8 9 8 7 11 11 7 11 11 10 11 12 11 10 9 9 7 6 4 4 3 3
12 11 6 11 6 3 8 4 3 5 4 7 3 8 14 18 11 9 10 13 12 13 12 11 10 8 7 6 5 4 3 4
7 9 1 4 7 3 7 2 2 3 4 8 7 5 8 10 9 10 11 12 14 12 12 11 11 9 7 7 6 5 5 5
4 2 3 2 7 6 3 3 3 5 5 9 6 6 4 7 9 10 12 13 13 12 12 12 11 9 8 7 6 7 7 7
4 7 5 3 6 3 1 4 5 8 5 2 6 8 5 5 7 9 12 13 13 12 12 10 10 10 8 8 7 7 7 8
7 6 3 5 4 7 5 5 5 5 3 3 2 9 5 7 7 9 9 10 11 10 10 11 10 10 9 7 6 7 8 9
4 3 5 11 6 10 8 8 6 5 3 2 2 6 7 7 8 9 10 10 10 11 10 11 11 10 9 7 7 8 8 8
6 4 1 2 11 9 8 6 6 4 3 4 1 3 6 7 5 5 8 10 11 11 11 10 10 10 9 8 7 8 8 8
Wind_Direction
192 249 265 278 246 266 296 282 285 273 231 156 148 143 124 94 75 41 36 18 215 160 246 125 95 100 109 112 116 109 103 93
289 185 258 265 291 286 233 282 301 315 288 351 28 154 112 101 75 62 72 45 43 49 68 79 95 103 114 115 111 114 127 126
256 212 248 213 224 228 270 283 297 298 322 77 131 45 101 101 76 52 51 49 57 68 81 93 108 112 107 109 108 82 51 133
258 254 241 282 296 299 290 267 243 257 273 74 94 82 96 96 105 85 73 65 71 83 94 97 96 99 106 134 240 291 46 110
244 239 238 225 268 256 255 267 270 282 290 108 112 104 104 122 119 112 103 92 80 76 85 87 108 131 157 185 117 117 106 115
287 305 326 297 282 296 299 277 293 283 280 124 126 122 123 115 128 124 124 122 115 107 107 113 150 147 137 114 118 129 138 132
296 302 301 299 287 283 278 285 281 298 308 110 133 130 132 127 138 151 154 154 144 147 152 142 127 123 119 114 133 139 122 134
268 253 247 253 268 290 271 265 271 266 265 81 97 112 118 142 153 151 142 141 140 145 151 156 153 156 144 146 143 152 149 147
277 282 283 265 256 247 241 287 322 299 122 161 106 125 145 158 176 163 151 159 159 155 160 157 158 153 145 139 148 154 145 131
273 276 262 360 24 344 263 241 272 280 73 65 133 134 157 160 180 154 154 157 155 146 130 140 137 140 128 143 140 150 141 149
249 248 268 170 178 286 278 332 239 108 129 126 132 138 144 154 148 149 142 149 136 156 142 141 135 132 132 124 157 170 150 159
254 273 284 64 80 102 343 286 114 132 156 143 168 218 140 91 151 146 155 131 154 151 143 146 143 161 164 150 175 166 159 177
226 258 289 86 124 142 245 59 101 168 142 146 185 49 138 172 163 159 158 152 144 152 159 157 162 163 172 160 182 186 202 213
276 266 281 55 161 297 68 191 128 124 124 107 97 113 145 158 156 154 156 148 164 168 161 165 169 178 182 184 184 191 201 218
293 46 3 349 67 97 341 111 99 104 119 133 150 133 142 153 157 158 165 163 173 175 171 175 175 189 195 192 195 202 213 227
211 137 174 160 112 117 216 108 126 111 122 152 186 126 152 150 165 168 170 175 186 185 176 182 183 196 210 185 205 221 233 240
256 190 197 182 201 144 164 138 120 115 89 90 282 149 169 161 174 176 179 185 197 197 185 189 189 202 212 213 213 236 249 254
42 10 253 125 160 155 163 170 178 160 132 20 255 192 165 175 183 191 190 195 203 205 201 198 196 207 214 221 224 251 266 253
94 330 114 343 155 181 181 182 181 153 111 148 135 252 185 175 193 203 209 200 208 215 213 201 195 210 204 213 237 252 254 286